Meteo pe oră la Almassora

Astăzi, 17 Ianuarie, Duminică

Timp Temperatura Precipitaţii Vânt Presiune Umiditate
00:00 +8°C° 0 mm 3 m/s 762 mmHg 38%
01:00 +8°C° 0 mm 3 m/s 762 mmHg 39%
02:00 +8°C° 0 mm 3 m/s 761 mmHg 40%
03:00 +8°C° 0 mm 3 m/s 761 mmHg 40%
04:00 +8°C° 0 mm 3 m/s 761 mmHg 41%
05:00 +8°C° 0 mm 3 m/s 761 mmHg 43%
06:00 +9°C° 0 mm 3 m/s 761 mmHg 44%
07:00 +10°C° 0 mm 3 m/s 761 mmHg 44%
08:00 +11°C° 0 mm 3 m/s 761 mmHg 44%
09:00 +12°C° 0 mm 3 m/s 761 mmHg 44%
10:00 +13°C° 0 mm 3 m/s 761 mmHg 42%
11:00 +16°C° 0 mm 3 m/s 760 mmHg 40%
12:00 +18°C° 0 mm 4 m/s 760 mmHg 38%
13:00 +18°C° 0 mm 3 m/s 760 mmHg 39%
14:00 +18°C° 0 mm 3 m/s 759 mmHg 40%
15:00 +18°C° 0 mm 3 m/s 758 mmHg 41%
16:00 +17°C° 0 mm 3 m/s 759 mmHg 47%
17:00 +14°C° 0 mm 3 m/s 759 mmHg 52%
18:00 +13°C° 0 mm 3 m/s 759 mmHg 57%
19:00 +12°C° 0 mm 3 m/s 760 mmHg 60%
20:00 +12°C° 0 mm 3 m/s 760 mmHg 62%
21:00 +12°C° 0 mm 2 m/s 760 mmHg 64%
22:00 +11°C° 0 mm 3 m/s 761 mmHg 66%
23:00 +11°C° 0 mm 3 m/s 761 mmHg 68%

Mâine, 18 Ianuarie, Luni

Timp Temperatura Precipitaţii Vânt Presiune Umiditate
00:00 +10°C° 0 mm 4 m/s 761 mmHg 70%
01:00 +10°C° 0 mm 3 m/s 761 mmHg 73%
02:00 +9°C° 0 mm 3 m/s 761 mmHg 77%
03:00 +9°C° 0 mm 3 m/s 761 mmHg 80%
04:00 +9°C° 0 mm 3 m/s 761 mmHg 79%
05:00 +8°C° 0 mm 2 m/s 761 mmHg 78%
06:00 +8°C° 0 mm 2 m/s 761 mmHg 77%
07:00 +9°C° 0 mm 2 m/s 761 mmHg 73%
08:00 +10°C° 0 mm 2 m/s 762 mmHg 69%
09:00 +12°C° 0 mm 2 m/s 762 mmHg 65%
10:00 +13°C° 0 mm 2 m/s 762 mmHg 61%
11:00 +14°C° 0 mm 2 m/s 762 mmHg 56%
12:00 +16°C° 0 mm 1 m/s 761 mmHg 52%
13:00 +16°C° 0 mm 2 m/s 761 mmHg 54%
14:00 +16°C° 0 mm 2 m/s 760 mmHg 56%
15:00 +16°C° 0 mm 2 m/s 760 mmHg 58%
16:00 +14°C° 0 mm 2 m/s 760 mmHg 66%
17:00 +13°C° 0 mm 2 m/s 760 mmHg 74%
18:00 +11°C° 0 mm 1 m/s 761 mmHg 82%
19:00 +11°C° 0 mm 1 m/s 761 mmHg 83%
20:00 +10°C° 0 mm 1 m/s 761 mmHg 83%
21:00 +10°C° 0 mm 1 m/s 761 mmHg 84%
22:00 +10°C° 0 mm 1 m/s 761 mmHg 83%
23:00 +10°C° 0 mm 1 m/s 761 mmHg 83%

Poimâine, 19 Ianuarie, Marţi

Timp Temperatura Precipitaţii Vânt Presiune Umiditate
00:00 +10°C° 0 mm 1 m/s 761 mmHg 82%
01:00 +9°C° 0 mm 1 m/s 761 mmHg 81%
02:00 +9°C° 0 mm 1 m/s 761 mmHg 81%
03:00 +9°C° 0 mm 1 m/s 760 mmHg 80%
04:00 +9°C° 0 mm 1 m/s 760 mmHg 78%
05:00 +9°C° 0 mm 1 m/s 760 mmHg 77%
06:00 +8°C° 0 mm 1 m/s 760 mmHg 75%
07:00 +9°C° 0 mm 1 m/s 760 mmHg 70%
08:00 +10°C° 0 mm 1 m/s 760 mmHg 64%
09:00 +12°C° 0 mm 1 m/s 760 mmHg 59%
10:00 +13°C° 0 mm 1 m/s 759 mmHg 55%
11:00 +14°C° 0 mm 1 m/s 759 mmHg 50%
12:00 +15°C° 0 mm 2 m/s 758 mmHg 46%
13:00 +16°C° 0 mm 2 m/s 758 mmHg 46%
14:00 +16°C° 0 mm 2 m/s 757 mmHg 47%
15:00 +16°C° 0 mm 2 m/s 756 mmHg 48%
16:00 +14°C° 0 mm 2 m/s 756 mmHg 55%
17:00 +13°C° 0 mm 1 m/s 756 mmHg 62%
18:00 +11°C° 0 mm 1 m/s 756 mmHg 69%
19:00 +11°C° 0 mm 1 m/s 756 mmHg 68%
20:00 +11°C° 0 mm 1 m/s 756 mmHg 67%
21:00 +11°C° 0 mm 1 m/s 756 mmHg 66%
22:00 +9°C° 0 mm 2 m/s 756 mmHg 64%
23:00 +9°C° 0 mm 2 m/s 756 mmHg 62%

20 Ianuarie, Miercuri

Timp Temperatura Precipitaţii Vânt Presiune Umiditate
00:00 +8°C° 0 mm 2 m/s 756 mmHg 61%
01:00 +8°C° 0 mm 3 m/s 755 mmHg 59%
02:00 +8°C° 0 mm 3 m/s 754 mmHg 58%
03:00 +7°C° 0 mm 4 m/s 754 mmHg 56%
04:00 +7°C° 0 mm 4 m/s 753 mmHg 57%
05:00 +8°C° 0 mm 3 m/s 753 mmHg 58%
06:00 +8°C° 0 mm 3 m/s 753 mmHg 59%
07:00 +8°C° 0 mm 4 m/s 753 mmHg 59%
08:00 +10°C° 0 mm 4 m/s 753 mmHg 59%
09:00 +10°C° 0 mm 4 m/s 753 mmHg 59%
10:00 +12°C° 0 mm 5 m/s 752 mmHg 57%
11:00 +13°C° 0 mm 6 m/s 751 mmHg 54%
12:00 +15°C° 0 mm 7 m/s 751 mmHg 52%
13:00 +15°C° 0 mm 7 m/s 750 mmHg 54%
14:00 +13°C° 0 mm 8 m/s 749 mmHg 57%
15:00 +13°C° 0 mm 8 m/s 749 mmHg 60%
16:00 +12°C° 0 mm 7 m/s 749 mmHg 64%
17:00 +11°C° 0 mm 6 m/s 749 mmHg 67%
18:00 +11°C° 0 mm 6 m/s 749 mmHg 71%
19:00 +10°C° 0 mm 6 m/s 749 mmHg 72%
20:00 +10°C° 0 mm 6 m/s 749 mmHg 72%
21:00 +10°C° 0 mm 6 m/s 750 mmHg 73%
22:00 +10°C° 0 mm 6 m/s 750 mmHg 74%
23:00 +10°C° 0 mm 6 m/s 750 mmHg 75%

21 Ianuarie, Joi

Timp Temperatura Precipitaţii Vânt Presiune Umiditate
00:00 +10°C° 0 mm 7 m/s 750 mmHg 76%
01:00 +10°C° 0 mm 6 m/s 750 mmHg 76%
02:00 +9°C° 0 mm 6 m/s 750 mmHg 77%
03:00 +9°C° 0 mm 6 m/s 750 mmHg 78%
04:00 +9°C° 0 mm 6 m/s 751 mmHg 77%
05:00 +9°C° 0 mm 6 m/s 751 mmHg 77%
06:00 +9°C° 0 mm 6 m/s 751 mmHg 76%
07:00 +10°C° 0 mm 7 m/s 751 mmHg 73%
08:00 +10°C° 0 mm 7 m/s 752 mmHg 69%
09:00 +11°C° 0 mm 7 m/s 752 mmHg 66%
10:00 +14°C° 0 mm 7 m/s 752 mmHg 59%
11:00 +16°C° 0 mm 7 m/s 752 mmHg 52%
12:00 +18°C° 0 mm 7 m/s 752 mmHg 44%
13:00 +17°C° 0 mm 8 m/s 752 mmHg 47%
14:00 +17°C° 0 mm 9 m/s 751 mmHg 50%
15:00 +16°C° 0 mm 9 m/s 751 mmHg 53%
16:00 +15°C° 0 mm 9 m/s 750 mmHg 56%
17:00 +13°C° 0 mm 9 m/s 750 mmHg 60%
18:00 +12°C° 0 mm 9 m/s 750 mmHg 63%
19:00 +12°C° 0 mm 9 m/s 750 mmHg 66%
20:00 +12°C° 0 mm 8 m/s 749 mmHg 69%
21:00 +12°C° 0 mm 8 m/s 749 mmHg 72%
22:00 +12°C° 0 mm 8 m/s 749 mmHg 72%
23:00 +12°C° 0 mm 9 m/s 749 mmHg 73%

22 Ianuarie, Vineri

Timp Temperatura Precipitaţii Vânt Presiune Umiditate
00:00 +12°C° 0 mm 9 m/s 749 mmHg 74%
01:00 +11°C° 0 mm 8 m/s 749 mmHg 72%
02:00 +11°C° 0 mm 8 m/s 749 mmHg 70%
03:00 +11°C° 0 mm 8 m/s 749 mmHg 67%
04:00 +11°C° 0 mm 7 m/s 749 mmHg 65%
05:00 +11°C° 0 mm 7 m/s 749 mmHg 62%
06:00 +11°C° 0 mm 7 m/s 749 mmHg 60%
07:00 +11°C° 0 mm 7 m/s 750 mmHg 59%
08:00 +11°C° 0 mm 7 m/s 750 mmHg 57%
09:00 +12°C° 0 mm 7 m/s 750 mmHg 56%
10:00 +13°C° 0 mm 8 m/s 750 mmHg 50%
11:00 +15°C° 0 mm 8 m/s 750 mmHg 44%
12:00 +17°C° 0 mm 9 m/s 750 mmHg 38%
13:00 +16°C° 0 mm 10 m/s 750 mmHg 39%
14:00 +16°C° 0 mm 10 m/s 750 mmHg 40%
15:00 +16°C° 0 mm 11 m/s 750 mmHg 41%
16:00 +15°C° 0 mm 9 m/s 750 mmHg 43%
17:00 +13°C° 0 mm 8 m/s 751 mmHg 45%
18:00 +12°C° 0 mm 7 m/s 751 mmHg 47%
19:00 +11°C° 0 mm 7 m/s 752 mmHg 48%
20:00 +11°C° 0 mm 8 m/s 752 mmHg 48%
21:00 +10°C° 0 mm 8 m/s 753 mmHg 49%
22:00 +10°C° 0 mm 8 m/s 753 mmHg 50%
23:00 +10°C° 0 mm 7 m/s 754 mmHg 50%
Arată mai mult

Formular de consimțământ

Meteoprog și furnizorii noștri de servicii pot stoca și accesa date personale, precum cookies, identificatori de dispozitiv sau alte tehnologii similare pe dispozitivul dumneavoastră și procesa astfel de date pentru a personaliza conținutul și reclamele, dar și pentru a oferi caracteristici de social media și pentru a analiza traficul.

  • Stocarea și/sau accesarea informațiilor pe dispozitivul dumneavoastră

    Cookies, identificatori de dispozitiv sau alte informații pot fi stocate sau accesate pe dispozitiv în scopurile indicate mai sus.

  • Reclame și conținut personalizat, evaluarea reclamelor și a conținutului, informații despre audiențe și dezvoltarea produselor

    Reclamele și conținutul pot fi personalizate pe baza unui profil. Pot fi adăugate date suplimentare pentru a personaliza mai bine reclamele și conținutul. Performanța reclamelor și conținutului poate fi măsurată. Pot fi obținute informații despre utilizatorii care au văzut reclamele și conținutul. Aceste date pot fi utilizate pentru a dezvolta sau îmbunătăți experiența utilizatorilor, sistemele și software-ul.

Dând clic pe ‘Sunt de acord’, permiteți utilizarea cookie-urilor menționate, a identificatorilor de dispozitiv, balizelor web sau altor tehnologii similare. Setările pot fi modificate din browser-ul dispozitivului dumneavoastră.

În anumite scopuri, interesele legitime pot prima asupra consimțământului. Puteți citi mai multe informații în acest sens în Politica privind Confidențialitatea Datelor și Cookie.